Location: Bílinka
(49.3579°N, 14.3767°E)
Time: 01:06:50
(UTC+00:00)

Cosmos 1745 Rocket - Pass Details

Date: 28 January 2023
Orbit: 952 x 998 km, 83.0° (Epoch: 30 March)

Event Time Altitude Azimuth Distance (km) Brightness Sun altitude
Rises 18:26:54 0° 352° (N) 3,715 7.2 -25.2°
Reaches altitude 10° 18:29:29 10° 356° (N) 2,756 6.4 -25.6°
Enters shadow 18:34:58 56° 45° (NE) 1,155 4.1 -26.5°
